Flag for U.S.A. Weather past 2 weeks in Pittsburgh, Pennsylvania, U.S.A.

Now
23 °F

Clear.


Feels Like: 17 °F
Forecast: 13 / 47 °F
Wind: 5 mph from West

Location: Allegheny County Airport

Current Time: Mar 2, 2015 at 10:41:59 PM

Latest Report: Mar 2, 2015 at 9:53 PM


Visibility: 8 mi

Pressure: 30.45 "Hg

Humidity: 57%

Dew point: 10 °F

Location of PittsburghLocation

Historic Weather in Pittsburgh — Graph

°F

Pittsburgh temperature yesterday

Maximum temperature yesterday: 35 °F (at 8:53 PM)
Minimum temperature yesterday: 21 °F (at 3:53 AM)
Average temperature yesterday: 30 °F

Past Weeks' High & Low Weather Summary

 TemperatureHumidityPressure
High35 °F (Mar 1, 8:53 PM)92% (Feb 22, 3:02 AM)30.84 "Hg (Feb 22, 3:02 AM)
Low-7 °F (Feb 20, 6:53 AM)23% (Feb 24, 3:53 PM)29.67 "Hg (Feb 18, 2:53 PM)
Average16 °F60%30.22 "Hg
* Reported Feb 15 8:53 PM — Mar 2 8:53 PM, Pittsburgh, Weather by CustomWeather, © 2015

Note: Actual official high and low records may vary slightly from our data, if they occured in-between our weather recording intervals... More about our weather records

Advertising

Pittsburgh weather history for previous 24 hours

 ConditionsComfort  
Time TempWeatherWind HumidityBarometerVisibility
8:53 PM
Mon, Mar 2
24 °FClear.5 mph55%30.46 "Hg8 mi
7:53 PM24 °FClear.6 mph55%30.47 "Hg9 mi
6:53 PM25 °FClear.5 mph53%30.45 "Hg10 mi
5:53 PM27 °FSunny.7 mph51%30.44 "Hg9 mi
4:53 PM29 °FPartly sunny.8 mph47%30.44 "Hg10 mi
3:53 PM29 °FPartly sunny.12 mph49%30.44 "Hg10 mi
2:53 PM28 °FOvercast.10 mph51%30.43 "Hg10 mi
1:53 PM28 °FOvercast.8 mph49%30.42 "Hg10 mi
12:53 PM27 °FOvercast.9 mph51%30.45 "Hg10 mi
11:53 AM26 °FOvercast.8 mph55%30.47 "Hg9 mi
10:53 AM25 °FLight snow. More clouds than sun.13 mph60%30.45 "Hg4 mi
9:53 AM24 °FMostly cloudy.14 mph62%30.44 "Hg7 mi
8:53 AM22 °FScattered clouds.10 mph68%30.43 "Hg6 mi
8:00 AM22 °FLight snow. Mostly cloudy.13 mph68%30.36 "Hg2 mi
7:01 AM23 °FLight snow. More clouds than sun.9 mph74%30.31 "Hg2 mi
5:53 AM25 °FMostly cloudy.13 mph75%30.31 "Hg5 mi
4:53 AM27 °FMostly cloudy.9 mph75%30.26 "Hg8 mi
3:53 AM28 °FOvercast.12 mph75%30.21 "Hg10 mi
2:53 AM30 °FIce fog.8 mph85%30.19 "Hg5 mi
1:53 AM32 °FIce fog.12 mph85%30.20 "Hg5 mi
12:53 AM32 °FIce fog.7 mph88%30.20 "Hg4 mi
11:53 PM
Sun, Mar 1
33 °FFog.8 mph85%30.19 "Hg3 mi
10:53 PM34 °FFog.12 mph85%30.21 "Hg4 mi
Weather by CustomWeather, © 2015

See weather overviewHow to use our weather pages